Tracking 29489 objects as of 9-Sep-2024
HD Live streaming from Space Station
objects crossing your sky now

ONEWEB-0324

Track ONEWEB-0324 now!
10-day predictions
ONEWEB-0324 is classified as:


NORAD ID: 49193
Int'l Code: 2021-083H
Perigee: 1,195.4 km
Apogee: 1,198.4 km
Inclination: 87.9 °
Period: 109.2 minutes
Semi major axis: 7567 km
RCS: Unknown
Launch date: September 14, 2021
Source: United Kingdom (UK)
Launch site: TYURATAM MISSILE AND SPACE COMPLEX (TTMTR)
Your satellite tracking list
Your tracking list is empty




NASA's NSSDC Master Catalog

Two Line Element Set (TLE):
1 49193U 21083H   24252.81976289  .00000073  00000-0  15129-3 0  9996
2 49193  87.9074 104.1186 0001981  79.4193 280.7163 13.18687569144815
Source of the keplerian elements: AFSPC